Location: ?????????
(54.7630°N, 39.4991°E)
Time: 09:39:52
(UTC+00:00)

Meteor 1-20 Rocket - Pass Details

Date: 14 April 2026
Orbit: 818 x 890 km, 81.2° (Epoch: 19 May)

Event Time Altitude Azimuth Distance (km) Brightness Sun altitude
Rises 22:01:36 0° 346° (NNW) 3,376 8.4 -25.0°
Reaches altitude 10° 22:04:02 10° 348° (NNW) 2,433 7.5 -25.0°
Maximum altitude 22:09:31 77° 74° (ENE) 847 4.1 -24.8°
Enters shadow 22:10:36 57° 143° (SE) 958 4.2 -24.8°
